Location: Lecco
(45.8566°N, 9.3977°E)
Time: 17:12:27
(UTC+01:00)

Envisat - Pass Details

Date: 28 October 2019
Orbit: 764 x 766 km, 98.1° (Epoch: 21 November)

Event Time Altitude Azimuth Distance (km) Brightness Sun altitude
Rises 18:31:56 0° 172° (S) 3,219 6.2 -13.9°
Reaches altitude 10° 18:34:14 10° 174° (S) 2,297 5.5 -14.3°
Maximum altitude 18:39:17 69° 258° (WSW) 821 3.3 -15.1°
Drops below altitude 10° 18:44:22 10° 342° (NNW) 2,313 5.7 -16.0°
Sets 18:46:42 0° 345° (NNW) 3,244 6.4 -16.4°
